| time (UTC) | temp F | wind direction | speed knots | gust knots | rain 1hr in | rain 24hr in | rain mn in | humidity % | barometer mb |
| 20260507085141 | 0 | 20 | 5.2 | 11.3 | 0.00 | 0.00 | 0.00 | 1009.6 | |
| 20260507084640 | 0 | 10 | 6.1 | 9.6 | 0.00 | 0.00 | 0.00 | 1009.6 | |
| 20260507084130 | 0 | 359 | 6.1 | 10.4 | 0.00 | 0.00 | 0.00 | 1009.5 | |
| 20260507083617 | 0 | 10 | 6.1 | 10.4 | 0.00 | 0.00 | 0.00 | 1009.5 | |
| 20260507083108 | 0 | 5 | 5.2 | 9.6 | 0.00 | 0.00 | 0.00 | 1009.5 | |
| 20260507082558 | 0 | 10 | 4.3 | 8.7 | 0.00 | 0.00 | 0.00 | 1009.5 | |
| 20260507082046 | 0 | 10 | 4.3 | 9.6 | 0.00 | 0.00 | 0.00 | 1009.5 | |
| 20260507081802 | 0 | 348 | 4.3 | 9.6 | 0.00 | 0.00 | 0.00 | 1009.5 | |
| 20260507081022 | 0 | 10 | 5.2 | 9.6 | 0.00 | 0.00 | 0.00 | 1009.5 | |
| 20260507080511 | 0 | 10 | 4.3 | 9.6 | 0.00 | 0.00 | 0.00 | 1009.5 | |
| 20260507080001 | 0 | 69 | 4.3 | 9.6 | 0.00 | 0.00 | 0.00 | 1009.5 | |
| 20260507075450 | 0 | 10 | 3.5 | 7.8 | 0.00 | 0.00 | 0.00 | 1009.5 | |
| 20260507075210 | 0 | 10 | 3.5 | 7.8 | 0.00 | 0.00 | 0.00 | 1009.5 | |
| 20260507074430 | 0 | 10 | 3.5 | 7.8 | 0.00 | 0.00 | 0.00 | 1009.4 | |
| 20260507073925 | 0 | 32 | 4.3 | 7.8 | 0.00 | 0.00 | 0.00 | 1009.5 | |
| 20260507073416 | 0 | 5 | 5.2 | 9.6 | 0.00 | 0.00 | 0.00 | 1009.5 | |
| 20260507072905 | 0 | 10 | 4.3 | 9.6 | 0.00 | 0.00 | 0.00 | 1009.6 | |
| 20260507072355 | 0 | 10 | 4.3 | 9.6 | 0.00 | 0.00 | 0.00 | 1009.7 | |
| 20260507071845 | 0 | 36 | 4.3 | 9.6 | 0.00 | 0.00 | 0.00 | 1009.7 | |
| 20260507071340 | 0 | 15 | 5.2 | 9.6 | 0.00 | 0.00 | 0.00 | 1009.6 | |
| 20260507071103 | 0 | 10 | 5.2 | 9.6 | 0.00 | 0.00 | 0.00 | 1009.7 | |
| 20260507070319 | 0 | 10 | 4.3 | 9.6 | 0.00 | 0.00 | 0.00 | 1009.7 | |
| 20260507065807 | 0 | 47 | 5.2 | 8.7 | 0.00 | 0.00 | 0.00 | 1009.8 | |
| 20260507065529 | 0 | 42 | 5.2 | 10.4 | 0.00 | 0.00 | 0.00 | 1009.8 | |
| 20260507064241 | 0 | 358 | 6.1 | 11.3 | 0.00 | 0.00 | 0.00 | 1009.8 | |
| 20260507063731 | 0 | 10 | 6.1 | 11.3 | 0.00 | 0.00 | 0.00 | 1009.9 | |
| 20260507063452 | 0 | 345 | 6.1 | 10.4 | 0.00 | 0.00 | 0.00 | 1009.9 | |
| 20260507062722 | 0 | 358 | 5.2 | 9.6 | 0.00 | 0.00 | 0.00 | 1009.9 | |
| 20260507062223 | 0 | 51 | 4.3 | 9.6 | 0.00 | 0.00 | 0.00 | 1009.8 | |
| 20260507061713 | 0 | 10 | 5.2 | 9.6 | 0.00 | 0.00 | 0.00 | 1009.9 | |
| 20260507061205 | 0 | 10 | 5.2 | 9.6 | 0.00 | 0.00 | 0.00 | 1009.8 | |
| 20260507060655 | 0 | 10 | 6.1 | 9.6 | 0.00 | 0.00 | 0.00 | 1009.9 | |
| 20260507060145 | 0 | 5 | 5.2 | 9.6 | 0.00 | 0.00 | 0.00 | 1009.7 | |
| 20260507055635 | 0 | 341 | 4.3 | 9.6 | 0.00 | 0.00 | 0.00 | 1009.7 | |
| 20260507055124 | 0 | 10 | 5.2 | 9.6 | 0.00 | 0.00 | 0.00 | 1009.5 | |
| 20260507054615 | 0 | 46 | 5.2 | 9.6 | 0.00 | 0.00 | 0.00 | 1009.5 | |
| 20260507054055 | 0 | 27 | 4.3 | 8.7 | 0.00 | 0.00 | 0.00 | 1009.5 | |
| 20260507053546 | 0 | 10 | 4.3 | 8.7 | 0.00 | 0.00 | 0.00 | 1009.5 | |
| 20260507053035 | 0 | 15 | 4.3 | 9.6 | 0.00 | 0.00 | 0.00 | 1009.4 | |
| 20260507052523 | 0 | 1 | 5.2 | 10.4 | 0.00 | 0.00 | 0.00 | 1009.4 | |
| 20260507052244 | 0 | 10 | 7.0 | 10.4 | 0.00 | 0.00 | 0.00 | 1009.3 | |
| 20260507051724 | 0 | 32 | 6.1 | 10.4 | 0.00 | 0.00 | 0.00 | 1009.3 | |
| 20260507050421 | 0 | 19 | 6.1 | 11.3 | 0.00 | 0.00 | 0.00 | 1009.4 | |
| 20260507045914 | 0 | 10 | 7.0 | 10.4 | 0.00 | 0.00 | 0.00 | 1009.5 | |
| 20260507045405 | 0 | 10 | 6.1 | 10.4 | 0.00 | 0.00 | 0.00 | 1009.5 | |
| 20260507044854 | 0 | 10 | 4.3 | 8.7 | 0.00 | 0.00 | 0.00 | 1009.5 | |
| 20260507043826 | 0 | 5 | 4.3 | 8.7 | 0.00 | 0.00 | 0.00 | 1009.4 | |
| 20260507043316 | 0 | 15 | 5.2 | 9.6 | 0.00 | 0.00 | 0.00 | 1009.2 | |
| 20260507042805 | 0 | 24 | 5.2 | 10.4 | 0.00 | 0.00 | 0.00 | 1009.3 | |
| 20260507042255 | 0 | 0 | 4.3 | 10.4 | 0.00 | 0.00 | 0.00 | 1009.4 | |
| 20260507041744 | 0 | 49 | 5.2 | 10.4 | 0.00 | 0.00 | 0.00 | 1009.3 | |
| 20260507041235 | 0 | 27 | 6.1 | 9.6 | 0.00 | 0.00 | 0.00 | 1009.2 | |
| 20260507040722 | 0 | 10 | 6.1 | 10.4 | 0.00 | 0.00 | 0.00 | 1009.3 | |
| 20260507040212 | 0 | 5 | 6.1 | 11.3 | 0.00 | 0.00 | 0.00 | 1009.1 | |
| 20260507035702 | 0 | 38 | 6.1 | 11.3 | 0.00 | 0.00 | 0.00 | 1009.0 | |
| 20260507034642 | 0 | 19 | 5.2 | 12.2 | 0.00 | 0.00 | 0.00 | 1008.9 | |
| 20260507034132 | 0 | 29 | 6.1 | 12.2 | 0.00 | 0.00 | 0.00 | 1008.8 | |
| 20260507033622 | 0 | 10 | 6.1 | 12.2 | 0.00 | 0.00 | 0.00 | 1008.8 | |
| 20260507033112 | 0 | 34 | 5.2 | 10.4 | 0.00 | 0.00 | 0.00 | 1008.7 | |
| 20260507032554 | 0 | 29 | 5.2 | 11.3 | 0.00 | 0.00 | 0.00 | 1008.6 | |
| 20260507032045 | 0 | 20 | 5.2 | 8.7 | 0.00 | 0.00 | 0.00 | 1008.6 | |
| 20260507031534 | 0 | 43 | 5.2 | 9.6 | 0.00 | 0.00 | 0.00 | 1008.4 | |
| 20260507031248 | 0 | 5 | 5.2 | 9.6 | 0.00 | 0.00 | 0.00 | 1008.4 | |
| 20260507030738 | 0 | 10 | 6.1 | 9.6 | 0.00 | 0.00 | 0.00 | 1008.4 | |
| 20260507025448 | 0 | 10 | 2.6 | 9.6 | 0.00 | 0.00 | 0.00 | 1008.2 | |
| 20260507024943 | 0 | 10 | 0.9 | 3.5 | 0.00 | 0.00 | 0.00 | 1008.1 | |
| 20260507024432 | 0 | 10 | 0.0 | 1.7 | 0.00 | 0.00 | 0.00 | 1008.0 | |
| 20260507023923 | 0 | 61 | 0.0 | 0.0 | 0.00 | 0.00 | 0.00 | 1007.8 | |
| 20260507023413 | 0 | 109 | 0.0 | 0.0 | 0.00 | 0.00 | 0.00 | 1007.7 | |
| 20260507022905 | 0 | 109 | 0.0 | 0.0 | 0.00 | 0.00 | 0.00 | 1007.6 | |
| 20260507022354 | 0 | 109 | 0.0 | 0.0 | 0.00 | 0.00 | 0.00 | 1007.6 | |
| 20260507021845 | 0 | 109 | 0.0 | 0.0 | 0.00 | 0.00 | 0.00 | 1007.4 | |
| 20260507021337 | 0 | 109 | 0.0 | 0.0 | 0.00 | 0.00 | 0.00 | 1007.3 | |
| 20260507020829 | 0 | 109 | 0.0 | 0.9 | 0.00 | 0.00 | 0.00 | 1007.2 | |
| 20260507020321 | 0 | 109 | 0.0 | 1.7 | 0.00 | 0.00 | 0.00 | 1007.0 | |
| 20260507015811 | 0 | 114 | 0.0 | 1.7 | 0.00 | 0.00 | 0.00 | 1006.8 | |
| 20260507015307 | 0 | 112 | 0.0 | 1.7 | 0.00 | 0.00 | 0.00 | 1006.7 | |
| 20260507014801 | 0 | 115 | 0.0 | 1.7 | 0.00 | 0.00 | 0.00 | 1006.7 | |
| 20260507014252 | 0 | 108 | 0.0 | 1.7 | 0.00 | 0.00 | 0.00 | 1006.6 | |
| 20260507013237 | 0 | 113 | 0.9 | 1.7 | 0.00 | 0.00 | 0.00 | 1006.6 | |
| 20260507012734 | 0 | 114 | 0.0 | 1.7 | 0.00 | 0.00 | 0.00 | 1006.5 | |
| 20260507012230 | 0 | 116 | 0.0 | 1.7 | 0.00 | 0.00 | 0.00 | 1006.5 | |
| 20260507011725 | 0 | 117 | 0.0 | 1.7 | 0.00 | 0.00 | 0.00 | 1006.4 | |
| 20260507011218 | 0 | 117 | 0.0 | 0.9 | 0.00 | 0.00 | 0.00 | 1006.3 | |
| 20260507010715 | 0 | 117 | 0.0 | 0.9 | 0.00 | 0.00 | 0.00 | 1006.3 | |
| 20260507010212 | 0 | 117 | 0.0 | 0.0 | 0.00 | 0.00 | 0.00 | 1006.3 | |
| 20260507005946 | 0 | 117 | 0.0 | 0.0 | 0.00 | 0.00 | 0.00 | 1006.3 | |
| 20260507005210 | 0 | 117 | 0.0 | 0.9 | 0.00 | 0.00 | 0.00 | 1006.3 | |
| 20260507004710 | 0 | 117 | 0.0 | 1.7 | 0.00 | 0.00 | 0.00 | 1006.2 | |
| 20260507004206 | 0 | 156 | 0.9 | 3.5 | 0.00 | 0.00 | 0.00 | 1006.1 | |
| 20260507003709 | 0 | 146 | 2.6 | 7.0 | 0.00 | 0.00 | 0.00 | 1005.9 | |
| 20260507003438 | 0 | 10 | 2.6 | 7.0 | 0.00 | 0.00 | 0.00 | 1005.9 | |
| 20260507002704 | 0 | 10 | 1.7 | 7.0 | 0.00 | 0.00 | 0.00 | 1005.7 | |
| 20260507002159 | 0 | 150 | 2.6 | 7.0 | 0.00 | 0.00 | 0.00 | 1005.7 | |
| 20260507001138 | 0 | 10 | 4.3 | 8.7 | 0.00 | 0.00 | 0.00 | 1005.5 | |
| 20260507000634 | 0 | 10 | 5.2 | 8.7 | 0.00 | 0.00 | 0.00 | 1005.4 | |
| 20260507000358 | 0 | 10 | 6.1 | 8.7 | 0.00 | 0.00 | 0.00 | 1005.4 | |
| 20260506235622 | 0 | 10 | 5.2 | 8.7 | 0.00 | 0.00 | 0.00 | 1005.4 | |
| 20260506235115 | 0 | 10 | 4.3 | 7.8 | 0.00 | 0.00 | 0.00 | 1005.5 | |
| 20260506234610 | 0 | 10 | 4.3 | 7.0 | 0.00 | 0.00 | 0.00 | 1005.5 | |
| 20260506234053 | 0 | 10 | 4.3 | 7.8 | 0.00 | 0.00 | 0.00 | 1005.5 | |
| 20260506233545 | 0 | 10 | 4.3 | 7.8 | 0.00 | 0.00 | 0.00 | 1005.5 | |
| 20260506233043 | 0 | 138 | 4.3 | 7.0 | 0.00 | 0.00 | 0.00 | 1005.4 | |
| 20260506232537 | 0 | 10 | 4.3 | 7.0 | 0.00 | 0.00 | 0.00 | 1005.4 | |
| 20260506232025 | 0 | 10 | 3.5 | 7.0 | 0.00 | 0.00 | 0.00 | 1005.4 | |
| 20260506231518 | 0 | 10 | 3.5 | 7.0 | 0.00 | 0.00 | 0.00 | 1005.3 | |
| 20260506231012 | 0 | 10 | 3.5 | 7.0 | 0.00 | 0.00 | 0.00 | 1005.3 | |
| 20260506230508 | 0 | 10 | 4.3 | 7.0 | 0.00 | 0.00 | 0.00 | 1005.3 | |
| 20260506225957 | 0 | 10 | 4.3 | 8.7 | 0.00 | 0.00 | 0.00 | 1005.3 | |
| 20260506225459 | 0 | 10 | 4.3 | 8.7 | 0.00 | 0.00 | 0.00 | 1005.2 | |
| 20260506224947 | 0 | 10 | 4.3 | 7.8 | 0.00 | 0.00 | 0.00 | 1005.1 | |
| 20260506224438 | 0 | 10 | 4.3 | 8.7 | 0.00 | 0.00 | 0.00 | 1005.2 | |
| 20260506223933 | 0 | 10 | 5.2 | 8.7 | 0.00 | 0.00 | 0.00 | 1005.3 | |
| 20260506223427 | 0 | 10 | 5.2 | 7.8 | 0.00 | 0.00 | 0.00 | 1005.2 | |
| 20260506222918 | 0 | 10 | 5.2 | 9.6 | 0.00 | 0.00 | 0.00 | 1005.1 | |
| 20260506222408 | 0 | 10 | 6.1 | 9.6 | 0.00 | 0.00 | 0.00 | 1005.1 | |
| 20260506221858 | 0 | 10 | 6.1 | 8.7 | 0.00 | 0.00 | 0.00 | 1005.1 | |
| 20260506221348 | 0 | 10 | 5.2 | 8.7 | 0.00 | 0.00 | 0.00 | 1005.1 | |
| 20260506220837 | 0 | 136 | 5.2 | 8.7 | 0.00 | 0.00 | 0.00 | 1005.3 | |
| 20260506220559 | 0 | 10 | 5.2 | 8.7 | 0.00 | 0.00 | 0.00 | 1005.3 | |
| 20260506220053 | 0 | 10 | 5.2 | 8.7 | 0.00 | 0.00 | 0.00 | 1005.2 | |
| 20260506215322 | 0 | 10 | 5.2 | 8.7 | 0.00 | 0.00 | 0.00 | 1005.2 | |
| 20260506215042 | 0 | 10 | 5.2 | 8.7 | 0.00 | 0.00 | 0.00 | 1005.2 | |
| 20260506214302 | 0 | 10 | 6.1 | 8.7 | 0.00 | 0.00 | 0.00 | 1005.2 | |
| 20260506213801 | 0 | 10 | 6.1 | 8.7 | 0.00 | 0.00 | 0.00 | 1005.3 | |
| 20260506212801 | 0 | 10 | 6.1 | 9.6 | 0.00 | 0.00 | 0.00 | 1005.4 | |
| 20260506212523 | 0 | 10 | 5.2 | 9.6 | 0.00 | 0.00 | 0.00 | 1005.4 | |
| 20260506211742 | 0 | 10 | 6.1 | 8.7 | 0.00 | 0.00 | 0.00 | 1005.3 | |
| 20260506211232 | 0 | 10 | 7.0 | 10.4 | 0.00 | 0.00 | 0.00 | 1005.4 | |
| 20260506210725 | 0 | 10 | 7.8 | 9.6 | 0.00 | 0.00 | 0.00 | 1005.4 | |
| 20260506205928 | 0 | 10 | 7.8 | 10.4 | 0.00 | 0.00 | 0.00 | 1005.4 | |
| 20260506205147 | 0 | 10 | 8.7 | 10.4 | 0.00 | 0.00 | 0.00 | 1005.5 | |
| 20260506204111 | 0 | 10 | 8.7 | 10.4 | 0.00 | 0.00 | 0.00 | 1005.5 | |
| 20260506203601 | 0 | 10 | 7.0 | 10.4 | 0.00 | 0.00 | 0.00 | 1005.6 | |
| 20260506203101 | 0 | 10 | 7.0 | 11.3 | 0.00 | 0.00 | 0.00 | 1005.5 | |
| 20260506202551 | 0 | 10 | 7.0 | 9.6 | 0.00 | 0.00 | 0.00 | 1005.5 | |
| 20260506202041 | 0 | 10 | 7.0 | 9.6 | 0.00 | 0.00 | 0.00 | 1005.5 | |
| 20260506201802 | 0 | 10 | 6.1 | 9.6 | 0.00 | 0.00 | 0.00 | 1005.6 | |
| 20260506201021 | 0 | 10 | 7.0 | 9.6 | 0.00 | 0.00 | 0.00 | 1005.6 | |
| 20260506200511 | 0 | 10 | 6.1 | 9.6 | 0.00 | 0.00 | 0.00 | 1005.7 | |
| 20260506200001 | 0 | 10 | 5.2 | 8.7 | 0.00 | 0.00 | 0.00 | 1005.8 | |
| 20260506195451 | 0 | 10 | 6.1 | 8.7 | 0.00 | 0.00 | 0.00 | 1005.8 | |
| 20260506194941 | 0 | 10 | 5.2 | 8.7 | 0.00 | 0.00 | 0.00 | 1005.8 | |
| 20260506194702 | 0 | 10 | 2.6 | 8.7 | 0.00 | 0.00 | 0.00 | 1005.9 | |
| 20260506193921 | 0 | 175 | 0.9 | 4.3 | 0.00 | 0.00 | 0.00 | 1006.0 | |
| 20260506193411 | 0 | 191 | 0.9 | 3.5 | 0.00 | 0.00 | 0.00 | 1006.1 | |
| 20260506192613 | 0 | 10 | 0.0 | 3.5 | 0.00 | 0.00 | 0.00 | 1006.3 | |
| 20260506192103 | 0 | 104 | 0.0 | 2.6 | 0.00 | 0.00 | 0.00 | 1006.4 | |
| 20260506191319 | 0 | 117 | 0.0 | 2.6 | 0.00 | 0.00 | 0.00 | 1006.4 | |
| 20260506191041 | 0 | 106 | 0.0 | 2.6 | 0.00 | 0.00 | 0.00 | 1006.5 | |
| 20260506190542 | 0 | 124 | 0.0 | 2.6 | 0.00 | 0.00 | 0.00 | 1006.6 | |
| 20260506185801 | 0 | 10 | 0.0 | 2.6 | 0.00 | 0.00 | 0.00 | 1006.7 | |
| 20260506185252 | 0 | 10 | 0.0 | 2.6 | 0.00 | 0.00 | 0.00 | 1006.8 | |
| 20260506184741 | 0 | 125 | 0.0 | 1.7 | 0.00 | 0.00 | 0.00 | 1006.9 | |
| 20260506184509 | 0 | 138 | 0.9 | 3.5 | 0.00 | 0.00 | 0.00 | 1006.9 | |
| 20260506183958 | 0 | 10 | 1.7 | 5.2 | 0.00 | 0.00 | 0.00 | 1007.0 | |
| 20260506183217 | 0 | 10 | 2.6 | 5.2 | 0.00 | 0.00 | 0.00 | 1007.1 | |
| 20260506182707 | 0 | 10 | 2.6 | 5.2 | 0.00 | 0.00 | 0.00 | 1007.2 | |
| 20260506182157 | 0 | 10 | 3.5 | 7.0 | 0.00 | 0.00 | 0.00 | 1007.2 | |
| 20260506181918 | 0 | 10 | 3.5 | 7.0 | 0.00 | 0.00 | 0.00 | 1007.2 | |
| 20260506181406 | 0 | 10 | 4.3 | 7.8 | 0.00 | 0.00 | 0.00 | 1007.2 | |
| 20260506180856 | 0 | 133 | 5.2 | 7.8 | 0.00 | 0.00 | 0.00 | 1007.3 | |
| 20260506180115 | 0 | 10 | 5.2 | 8.7 | 0.00 | 0.00 | 0.00 | 1007.3 | |
| 20260506175605 | 0 | 10 | 6.1 | 8.7 | 0.00 | 0.00 | 0.00 | 1007.2 | |
| 20260506175055 | 0 | 10 | 7.0 | 9.6 | 0.00 | 0.00 | 0.00 | 1007.2 | |
| 20260506174817 | 0 | 10 | 7.0 | 9.6 | 0.00 | 0.00 | 0.00 | 1007.2 | |
| 20260506174035 | 0 | 163 | 7.0 | 9.6 | 0.00 | 0.00 | 0.00 | 1007.2 | |
| 20260506173525 | 0 | 10 | 7.8 | 10.4 | 0.00 | 0.00 | 0.00 | 1007.2 | |
| 20260506173015 | 0 | 10 | 6.1 | 10.4 | 0.00 | 0.00 | 0.00 | 1007.2 | |
| 20260506172459 | 0 | 10 | 5.2 | 8.7 | 0.00 | 0.00 | 0.00 | 1007.3 | |
| 20260506172222 | 0 | 10 | 5.2 | 8.7 | 0.00 | 0.00 | 0.00 | 1007.3 | |
| 20260506171451 | 0 | 10 | 6.1 | 9.6 | 0.00 | 0.00 | 0.00 | 1007.2 | |
| 20260506170942 | 0 | 10 | 7.0 | 9.6 | 0.00 | 0.00 | 0.00 | 1007.2 | |
| 20260506170431 | 0 | 10 | 6.1 | 9.6 | 0.00 | 0.00 | 0.00 | 1007.2 | |
| 20260506165920 | 0 | 10 | 6.1 | 8.7 | 0.00 | 0.00 | 0.00 | 1007.3 | |
| 20260506165411 | 0 | 10 | 5.2 | 8.7 | 0.00 | 0.00 | 0.00 | 1007.3 | |
| 20260506164901 | 0 | 10 | 4.3 | 7.8 | 0.00 | 0.00 | 0.00 | 1007.2 | |
| 20260506164352 | 0 | 10 | 2.6 | 7.0 | 0.00 | 0.00 | 0.00 | 1007.3 | |
| 20260506164113 | 0 | 10 | 1.7 | 3.5 | 0.00 | 0.00 | 0.00 | 1007.3 | |
| 20260506163325 | 0 | 10 | 2.6 | 6.1 | 0.00 | 0.00 | 0.00 | 1007.3 | |
| 20260506163039 | 0 | 131 | 2.6 | 7.0 | 0.00 | 0.00 | 0.00 | 1007.2 | |
| 20260506162257 | 0 | 10 | 3.5 | 7.0 | 0.00 | 0.00 | 0.00 | 1007.2 | |
| 20260506162019 | 0 | 10 | 3.5 | 5.2 | 0.00 | 0.00 | 0.00 | 1007.1 | |
| 20260506161237 | 0 | 10 | 3.5 | 7.0 | 0.00 | 0.00 | 0.00 | 1007.0 | |
| 20260506160730 | 0 | 10 | 3.5 | 7.0 | 0.00 | 0.00 | 0.00 | 1007.0 | |
| 20260506160222 | 0 | 10 | 3.5 | 7.0 | 0.00 | 0.00 | 0.00 | 1006.9 | |
| 20260506155943 | 0 | 10 | 5.2 | 8.7 | 0.00 | 0.00 | 0.00 | 1006.8 | |
| 20260506155434 | 0 | 10 | 5.2 | 7.8 | 0.00 | 0.00 | 0.00 | 1006.8 | |
| 20260506154657 | 0 | 10 | 6.1 | 9.6 | 0.00 | 0.00 | 0.00 | 1006.6 | |
| 20260506154156 | 0 | 10 | 6.1 | 9.6 | 0.00 | 0.00 | 0.00 | 1006.6 | |
| 20260506153646 | 0 | 10 | 6.1 | 9.6 | 0.00 | 0.00 | 0.00 | 1006.5 | |
| 20260506153143 | 0 | 10 | 7.0 | 9.6 | 0.00 | 0.00 | 0.00 | 1006.6 | |
| 20260506152637 | 0 | 10 | 7.0 | 9.6 | 0.00 | 0.00 | 0.00 | 1006.4 | |
| 20260506152131 | 0 | 10 | 7.8 | 9.6 | 0.00 | 0.00 | 0.00 | 1006.4 | |
| 20260506151625 | 0 | 10 | 7.0 | 9.6 | 0.00 | 0.00 | 0.00 | 1006.3 | |
| 20260506151122 | 0 | 10 | 6.1 | 9.6 | 0.00 | 0.00 | 0.00 | 1006.2 | |
| 20260506150847 | 0 | 114 | 7.8 | 9.6 | 0.00 | 0.00 | 0.00 | 1006.3 | |
| 20260506150112 | 0 | 10 | 7.8 | 10.4 | 0.00 | 0.00 | 0.00 | 1006.1 | |
| 20260506145608 | 0 | 129 | 7.8 | 10.4 | 0.00 | 0.00 | 0.00 | 1006.1 | |
| 20260506145335 | 0 | 126 | 7.8 | 10.4 | 0.00 | 0.00 | 0.00 | 1006.1 | |
| 20260506144556 | 0 | 10 | 7.8 | 10.4 | 0.00 | 0.00 | 0.00 | 1006.1 | |
| 20260506144324 | 0 | 10 | 7.0 | 9.6 | 0.00 | 0.00 | 0.00 | 1006.1 | |
| 20260506143547 | 0 | 10 | 6.1 | 9.6 | 0.00 | 0.00 | 0.00 | 1006.0 | |
| 20260506143313 | 0 | 10 | 6.1 | 8.7 | 0.00 | 0.00 | 0.00 | 1005.9 | |
| 20260506142538 | 0 | 125 | 6.1 | 9.6 | 0.00 | 0.00 | 0.00 | 1005.8 | |
| 20260506142026 | 0 | 10 | 7.0 | 9.6 | 0.00 | 0.00 | 0.00 | 1005.8 | |
| 20260506141518 | 0 | 111 | 5.2 | 8.7 | 0.00 | 0.00 | 0.00 | 1005.8 | |
| 20260506141017 | 0 | 117 | 4.3 | 7.8 | 0.00 | 0.00 | 0.00 | 1006.1 | |
| 20260506140512 | 0 | 121 | 4.3 | 7.8 | 0.00 | 0.00 | 0.00 | 1006.0 | |
| 20260506135959 | 0 | 117 | 4.3 | 7.8 | 0.00 | 0.00 | 0.00 | 1006.0 | |
| 20260506135451 | 0 | 118 | 3.5 | 7.0 | 0.00 | 0.00 | 0.00 | 1006.1 | |
| 20260506134949 | 0 | 117 | 3.5 | 7.0 | 0.00 | 0.00 | 0.00 | 1006.0 | |
| 20260506134711 | 0 | 115 | 4.3 | 7.8 | 0.00 | 0.00 | 0.00 | 1005.9 | |
| 20260506133933 | 0 | 108 | 3.5 | 7.0 | 0.00 | 0.00 | 0.00 | 1005.9 | |
| 20260506133427 | 0 | 108 | 3.5 | 7.0 | 0.00 | 0.00 | 0.00 | 1006.0 | |
| 20260506132926 | 0 | 102 | 4.3 | 7.0 | 0.00 | 0.00 | 0.00 | 1005.9 | |
| 20260506132422 | 0 | 124 | 3.5 | 7.0 | 0.00 | 0.00 | 0.00 | 1005.8 | |
| 20260506131916 | 0 | 127 | 3.5 | 7.0 | 0.00 | 0.00 | 0.00 | 1005.8 | |
| 20260506131400 | 0 | 10 | 2.6 | 7.0 | 0.00 | 0.00 | 0.00 | 1005.9 | |
| 20260506130853 | 0 | 115 | 3.5 | 6.1 | 0.00 | 0.00 | 0.00 | 1005.9 | |
| 20260506130617 | 0 | 116 | 3.5 | 6.1 | 0.00 | 0.00 | 0.00 | 1005.9 | |
| 20260506125842 | 0 | 117 | 3.5 | 6.1 | 0.00 | 0.00 | 0.00 | 1005.8 | |
| 20260506125329 | 0 | 111 | 2.6 | 6.1 | 0.00 | 0.00 | 0.00 | 1005.8 | |
| 20260506124820 | 0 | 120 | 1.7 | 3.5 | 0.00 | 0.00 | 0.00 | 1005.9 | |
| 20260506124312 | 0 | 116 | 1.7 | 3.5 | 0.00 | 0.00 | 0.00 | 1005.9 | |
| 20260506124023 | 0 | 137 | 2.6 | 5.2 | 0.00 | 0.00 | 0.00 | 1005.8 | |
| 20260506123246 | 0 | 10 | 2.6 | 3.5 | 0.00 | 0.00 | 0.00 | 1005.7 | |
| 20260506122736 | 0 | 121 | 1.7 | 3.5 | 0.00 | 0.00 | 0.00 | 1005.7 | |
| 20260506122228 | 0 | 10 | 2.6 | 3.5 | 0.00 | 0.00 | 0.00 | 1005.7 | |
| 20260506121726 | 0 | 125 | 1.7 | 3.5 | 0.00 | 0.00 | 0.00 | 1005.7 | |
| 20260506121217 | 0 | 127 | 1.7 | 3.5 | 0.00 | 0.00 | 0.00 | 1005.6 | |
| 20260506120706 | 0 | 124 | 1.7 | 3.5 | 0.00 | 0.00 | 0.00 | 1005.6 | |
| 20260506120156 | 0 | 129 | 1.7 | 3.5 | 0.00 | 0.00 | 0.00 | 1005.5 | |
| 20260506115647 | 0 | 118 | 1.7 | 3.5 | 0.00 | 0.00 | 0.00 | 1005.5 | |
| 20260506115408 | 0 | 131 | 1.7 | 3.5 | 0.00 | 0.00 | 0.00 | 1005.4 | |
| 20260506114626 | 0 | 127 | 2.6 | 4.3 | 0.00 | 0.00 | 0.00 | 1005.4 | |
| 20260506114117 | 0 | 10 | 1.7 | 4.3 | 0.00 | 0.00 | 0.00 | 1005.3 | |
| 20260506113606 | 0 | 137 | 1.7 | 5.2 | 0.00 | 0.00 | 0.00 | 1005.3 | |
| 20260506113056 | 0 | 138 | 2.6 | 5.2 | 0.00 | 0.00 | 0.00 | 1005.3 | |
| 20260506112546 | 0 | 10 | 3.5 | 7.0 | 0.00 | 0.00 | 0.00 | 1005.4 | |
| 20260506112036 | 0 | 10 | 3.5 | 7.8 | 0.00 | 0.00 | 0.00 | 1005.3 | |
| 20260506111526 | 0 | 139 | 3.5 | 7.8 | 0.00 | 0.00 | 0.00 | 1005.3 | |
| 20260506111017 | 0 | 10 | 2.6 | 7.0 | 0.00 | 0.00 | 0.00 | 1005.3 | |
| 20260506110504 | 0 | 10 | 2.6 | 7.8 | 0.00 | 0.00 | 0.00 | 1005.3 | |
| 20260506105954 | 0 | 10 | 1.7 | 7.8 | 0.00 | 0.00 | 0.00 | 1005.3 | |
| 20260506105444 | 0 | 10 | 0.0 | 1.7 | 0.00 | 0.00 | 0.00 | 1005.4 | |
| 20260506104934 | 0 | 10 | 0.0 | 1.7 | 0.00 | 0.00 | 0.00 | 1005.5 | |
| 20260506104424 | 0 | 10 | 0.0 | 0.9 | 0.00 | 0.00 | 0.00 | 1005.5 | |
| 20260506103915 | 0 | 10 | 0.0 | 1.7 | 0.00 | 0.00 | 0.00 | 1005.5 | |
| 20260506103406 | 0 | 10 | 0.0 | 1.7 | 0.00 | 0.00 | 0.00 | 1005.3 | |
| 20260506102857 | 0 | 10 | 0.0 | 5.2 | 0.00 | 0.00 | 0.00 | 1005.2 | |
| 20260506102343 | 0 | 10 | 0.0 | 5.2 | 0.00 | 0.00 | 0.00 | 1005.3 | |
| 20260506102103 | 0 | 156 | 0.0 | 2.6 | 0.00 | 0.00 | 0.00 | 1005.3 | |
| 20260506101322 | 0 | 156 | 0.0 | 0.9 | 0.00 | 0.00 | 0.00 | 1005.3 | |
| 20260506101043 | 0 | 139 | 0.0 | 0.9 | 0.00 | 0.00 | 0.00 | 1005.3 | |
| 20260506100255 | 0 | 150 | 0.0 | 1.7 | 0.00 | 0.00 | 0.00 | 1005.1 | |
| 20260506100015 | 0 | 10 | 0.0 | 1.7 | 0.00 | 0.00 | 0.00 | 1005.0 | |
| 20260506095234 | 0 | 144 | 0.0 | 0.0 | 0.00 | 0.00 | 0.00 | 1004.9 | |
| 20260506094724 | 0 | 112 | 0.0 | 0.0 | 0.00 | 0.00 | 0.00 | 1005.0 | |
| 20260506094219 | 0 | 112 | 0.0 | 0.0 | 0.00 | 0.00 | 0.00 | 1005.2 | |
| 20260506093709 | 0 | 116 | 0.0 | 0.9 | 0.00 | 0.00 | 0.00 | 1005.1 | |
| 20260506093158 | 0 | 117 | 0.0 | 0.0 | 0.00 | 0.00 | 0.00 | 1005.1 | |
| 20260506092649 | 0 | 117 | 0.0 | 0.9 | 0.00 | 0.00 | 0.00 | 1005.0 | |
| 20260506092138 | 0 | 115 | 0.0 | 0.9 | 0.00 | 0.00 | 0.00 | 1005.1 | |
| 20260506091628 | 0 | 119 | 0.0 | 0.9 | 0.00 | 0.00 | 0.00 | 1005.0 | |
| 20260506091118 | 0 | 117 | 0.0 | 0.9 | 0.00 | 0.00 | 0.00 | 1005.0 | |
| 20260506090609 | 0 | 113 | 0.0 | 0.9 | 0.00 | 0.00 | 0.00 | 1005.1 | |
| 20260506090057 | 0 | 113 | 0.0 | 1.7 | 0.00 | 0.00 | 0.00 | 1005.0 |